Overview Statistics Trail Chart Weather Telemetry Raw packets
 

This is the latest recevied weather packets stored in our database for station/object HS3UAA-1. If no packets are shown the sender has not sent any weather packets the latest 10 day(s).

<< 76 77 78 79 80 81 82 >>
Time Temp. Humidity Pressure Rain* Wind** Luminosity Snow
1788048175 30.56° C 57% 996 hPa - - 0 W/m² -
1788047852 31.11° C 56% 996 hPa - - 0 W/m² -
1788047530 31.11° C 56% 996 hPa - - 0 W/m² -
1788047208 31.67° C 54% 996 hPa - - 0 W/m² -
1788046886 32.22° C 52% 995 hPa - - 0 W/m² -
1788046564 32.22° C 53% 995 hPa - - 0 W/m² -
1788046242 32.78° C 52% 995 hPa - - 0 W/m² -
1788045920 31.67° C 53% 995 hPa - - 0 W/m² -
1788045598 31.11° C 56% 995 hPa - - 0 W/m² -
1788045276 31.67° C 54% 995 hPa - - 0 W/m² -
1788044954 31.11° C 55% 995 hPa - - 0 W/m² -
1788044632 31.67° C 54% 995 hPa - - 0 W/m² -
1788044310 31.11° C 56% 995 hPa - - 0 W/m² -
1788043988 31.67° C 54% 995 hPa - - 0 W/m² -
1788043666 31.67° C 54% 995 hPa - - 0 W/m² -
1788043035 31.11° C 55% 995 hPa - - 0 W/m² -
1788042713 31.11° C 55% 995 hPa - - 0 W/m² -
1788042391 31.67° C 54% 995 hPa - - 0 W/m² -
1788042069 31.67° C 54% 995 hPa - - 0 W/m² -
1788041747 31.67° C 54% 995 hPa - - 0 W/m² -
1788041425 31.67° C 55% 995 hPa - - 0 W/m² -
1788040824 31.11° C 55% 995 hPa - - 0 W/m² -
1788040502 32.22° C 53% 995 hPa - - 0 W/m² -
1788040180 31.67° C 54% 995 hPa - - 0 W/m² -
1788039858 31.11° C 55% 995 hPa - - 0 W/m² -

* Rain since midnight (hover to see other rain measurements)
** Current wind speed in m/s (hover to see current wind gust speed)